Погода в Этыркэне

Россия / Хабаровский край     51°31′10″N   131°31′45″E
темп.,
°C
ветер,
м/с
пор.,
м/с
влажн.,
%
обл.,
%
осадки,
мм/ч
давл.,
гПа
погр.,
м
25 февраля, чт
чт2501:00−29всв119548 0.0 102819
04:00−29всв119247 0.0 102819
07:00−29в119054 0.0 102819
10:00−24вюв008975 0.0 102832
13:00−18зсз118181 0.0 1025362
16:00−18зсз229088 0.0 1024435
19:00−23зсз12100100 0.1 102520
22:00−27ссз1199100 0.1 102619
26 февраля, пт
пт2601:00−28ссз119991 0.0 102819
04:00−28сз119993 0.0 102919
07:00−29сз119990 0.0 103119
10:00−25зсз129683 0.0 103187
13:00−19зсз238878 0.0 1031439
16:00−18зсз349188 0.0 1031526
19:00−24сз1110070 0.0 103320
22:00−27ссв119834 0.0 103520
27 февраля, сб
сб2701:00−25вюв11890 0.0 103620
04:00−25вюв128517 0.0 103620
07:00−22вюв2286100 0.0 103427
10:00−19вюв2389100 0.0 1031117
13:00−15вюв3589100 0.1 1025277
16:00−13юв51380100 0.5 1019685
19:00−14юв41484100 0.1 1015709
22:00−15юв4995100 1.4 1014497
28 февраля, вс
вс2801:00−15юв2496100 1.1 1011245
04:00−17ю2297100 1.8 101262
07:00−17з41097100 0.4 1016515
10:00−22з4999100 0.7 1019568
13:00−20з51095100 0.2 1021764
16:00−19з6993100 0.4 1023926
19:00−21з41098100 0.3 1025891
22:00−23з51099100 0.6 1027668
1 марта, пн
пн101:00−24з41099100 0.3 1028491
04:00−27з27100100 0.5 1031225
07:00−30з25100100 0.1 1032145
10:00−29з26100100 0.2 1033346
13:00−25з378692 0.0 1032688
16:00−24з589288 0.1 1032985
19:00−25з41099100 0.2 1032637
22:00−27з39100100 0.3 1034363